Location: Saint-Palais-sur-Mer
(45.6429°N, 1.0859°W)
Time: 12:57:55
(UTC+01:00)

ISS - Visible Passes

Search period start: 16 January 2026 00:00
Search period end: 26 January 2026 00:00
Orbit: 413 x 424 km, 51.6° (Epoch: 16 January)

Date Brightness Start Highest point End Pass type
(mag) Time Alt. Az. Time Alt. Az. Time Alt. Az.
16 Jan -3.3 19:24:38 10° W 19:27:55 52° NNW 19:28:48 38° NNE visible
17 Jan -3.7 18:36:47 10° WSW 18:40:06 74° NNW 18:43:02 13° ENE visible
17 Jan -1.6 20:14:16 10° WNW 20:15:58 22° NW 20:15:58 22° NW visible
18 Jan -2.6 19:26:16 10° W 19:29:20 33° NNW 19:30:09 29° NNE visible
19 Jan -2.9 18:38:15 10° W 18:41:26 40° NNW 18:44:19 12° NE visible
19 Jan -1.4 20:15:48 10° WNW 20:17:15 20° NW 20:17:15 20° NW visible
20 Jan -2.5 19:27:50 10° WNW 19:30:47 28° N 19:31:23 26° NNE visible
21 Jan -2.5 18:39:48 10° WNW 18:42:48 29° N 18:45:31 12° NE visible
21 Jan -1.5 20:17:03 10° NW 20:18:28 21° NW 20:18:28 21° NW visible
22 Jan -2.7 19:29:09 10° NW 19:32:10 30° N 19:32:36 29° NNE visible
23 Jan -2.5 18:41:11 10° WNW 18:44:09 28° N 18:46:46 12° ENE visible
23 Jan -1.8 20:18:04 10° WNW 20:19:43 26° NW 20:19:43 26° NW visible
24 Jan -3.2 19:30:12 10° NW 19:33:25 42° NNE 19:33:56 38° NE visible
25 Jan -2.9 18:42:17 10° NW 18:45:23 34° NNE 18:48:13 12° ENE visible
25 Jan -2.2 20:19:02 10° WNW 20:21:10 36° WNW 20:21:10 36° WNW visible
